Location: Corralito
(14.1667°N, 87.1833°W)
Time: 12:39:49
(UTC+00:00)

H-2A R/B - Pass Details

Date: 07 June 2020
Orbit: 577 x 656 km, 98.5° (Epoch: 11 July)

Event Time Altitude Azimuth Distance (km) Brightness Sun altitude
Exits shadow 09:42:43 59° 258° (WSW) 724 2.0 -21.6°
Drops below altitude 10° 09:47:04 10° 338° (NNW) 2,025 4.8 -20.7°
Sets 09:49:19 0° 342° (NNW) 2,944 5.7 -20.3°
